• In Germany
  • List of Countries
  • For 7 days
  • Water Temperature
  • Satellite Maps
  • Weather Map
  • Weather Widgets
  • user-avatar
    Login

    Hourly Weather Brasília

    Today, 20 September, Thursday

    Time Temperature Precipitation Wind Pressure Humidity
    00:00 +21°C° 0.8 mm 2 mps 667 mmHg 78%
    01:00 +21°C° 0.1 mm 2 mps 667 mmHg 78%
    02:00 +21°C° 0.1 mm 2 mps 666 mmHg 78%
    03:00 +21°C° 0.1 mm 3 mps 666 mmHg 78%
    04:00 +21°C° 0.6 mm 3 mps 666 mmHg 79%
    05:00 +21°C° 0.6 mm 2 mps 666 mmHg 79%
    06:00 +21°C° 0.6 mm 2 mps 666 mmHg 80%
    07:00 +22°C° 0.8 mm 3 mps 667 mmHg 74%
    08:00 +24°C° 0.8 mm 3 mps 668 mmHg 69%
    09:00 +25°C° 0.8 mm 3 mps 668 mmHg 64%
    10:00 +26°C° 0.6 mm 3 mps 669 mmHg 57%
    11:00 +28°C° 0.6 mm 3 mps 669 mmHg 51%
    12:00 +29°C° 0.6 mm 3 mps 669 mmHg 45%
    13:00 +29°C° 1 mm 3 mps 668 mmHg 48%
    14:00 +28°C° 1 mm 3 mps 667 mmHg 52%
    15:00 +27°C° 1 mm 3 mps 667 mmHg 56%
    16:00 +25°C° 0.4 mm 3 mps 666 mmHg 62%
    17:00 +24°C° 0.4 mm 3 mps 666 mmHg 67%
    18:00 +22°C° 0.4 mm 4 mps 666 mmHg 73%
    19:00 +22°C° 0.1 mm 3 mps 666 mmHg 75%
    20:00 +21°C° 0.1 mm 3 mps 666 mmHg 77%
    21:00 +21°C° 0.1 mm 2 mps 666 mmHg 79%
    22:00 +21°C° 0 mm 2 mps 666 mmHg 78%
    23:00 +21°C° 0 mm 2 mps 667 mmHg 78%

    Tomorrow, 21 September, Friday

    Time Temperature Precipitation Wind Pressure Humidity
    00:00 +21°C° 0 mm 2 mps 667 mmHg 77%
    01:00 +21°C° 0 mm 2 mps 666 mmHg 77%
    02:00 +21°C° 0 mm 2 mps 666 mmHg 77%
    03:00 +21°C° 0 mm 2 mps 665 mmHg 78%
    04:00 +20°C° 0 mm 3 mps 665 mmHg 79%
    05:00 +20°C° 0 mm 3 mps 666 mmHg 79%
    06:00 +20°C° 0 mm 3 mps 666 mmHg 80%
    07:00 +21°C° 0 mm 4 mps 667 mmHg 73%
    08:00 +23°C° 0 mm 4 mps 667 mmHg 66%
    09:00 +26°C° 0 mm 4 mps 668 mmHg 59%
    10:00 +27°C° 0 mm 4 mps 668 mmHg 52%
    11:00 +29°C° 0 mm 3 mps 668 mmHg 44%
    12:00 +31°C° 0 mm 3 mps 668 mmHg 36%
    13:00 +31°C° 0 mm 2 mps 668 mmHg 37%
    14:00 +30°C° 0 mm 1 mps 667 mmHg 38%
    15:00 +30°C° 0 mm 1 mps 666 mmHg 39%
    16:00 +29°C° 0 mm 1 mps 666 mmHg 42%
    17:00 +28°C° 0 mm 1 mps 665 mmHg 45%
    18:00 +27°C° 0 mm 2 mps 665 mmHg 47%
    19:00 +26°C° 0.1 mm 2 mps 666 mmHg 50%
    20:00 +26°C° 0.1 mm 1 mps 666 mmHg 53%
    21:00 +25°C° 0.1 mm 1 mps 666 mmHg 56%
    22:00 +25°C° 0.4 mm 1 mps 666 mmHg 57%
    23:00 +25°C° 0.4 mm 2 mps 666 mmHg 58%

    Day after tomorrow, 22 September, Saturday

    Time Temperature Precipitation Wind Pressure Humidity
    00:00 +24°C° 0.4 mm 2 mps 666 mmHg 59%
    01:00 +24°C° 0.1 mm 2 mps 666 mmHg 61%
    02:00 +23°C° 0.1 mm 2 mps 665 mmHg 62%
    03:00 +23°C° 0.1 mm 2 mps 665 mmHg 64%
    04:00 +22°C° 0 mm 3 mps 665 mmHg 63%
    05:00 +22°C° 0 mm 3 mps 665 mmHg 63%
    06:00 +22°C° 0 mm 3 mps 665 mmHg 62%
    07:00 +24°C° 0 mm 3 mps 666 mmHg 58%
    08:00 +25°C° 0 mm 4 mps 667 mmHg 53%
    09:00 +26°C° 0 mm 4 mps 667 mmHg 49%
    10:00 +28°C° 0 mm 4 mps 667 mmHg 43%
    11:00 +29°C° 0 mm 4 mps 667 mmHg 37%
    12:00 +31°C° 0 mm 3 mps 667 mmHg 32%
    13:00 +31°C° 0 mm 3 mps 667 mmHg 30%
    14:00 +32°C° 0 mm 2 mps 666 mmHg 29%
    15:00 +32°C° 0 mm 2 mps 665 mmHg 27%
    16:00 +31°C° 0 mm 1 mps 665 mmHg 30%
    17:00 +30°C° 0 mm 1 mps 665 mmHg 32%
    18:00 +29°C° 0 mm 1 mps 664 mmHg 35%
    19:00 +28°C° 0 mm 1 mps 665 mmHg 37%
    20:00 +27°C° 0 mm 1 mps 665 mmHg 39%
    21:00 +26°C° 0 mm 1 mps 665 mmHg 41%
    22:00 +26°C° 0.2 mm 1 mps 665 mmHg 42%
    23:00 +26°C° 0.2 mm 2 mps 665 mmHg 44%

    23 September, Sunday

    Time Temperature Precipitation Wind Pressure Humidity
    00:00 +26°C° 0.2 mm 2 mps 665 mmHg 45%
    01:00 +25°C° 0 mm 2 mps 665 mmHg 50%
    02:00 +24°C° 0 mm 2 mps 664 mmHg 55%
    03:00 +24°C° 0 mm 2 mps 664 mmHg 59%
    04:00 +23°C° 0.1 mm 2 mps 664 mmHg 60%
    05:00 +22°C° 0.1 mm 3 mps 664 mmHg 62%
    06:00 +22°C° 0.1 mm 3 mps 665 mmHg 63%
    07:00 +24°C° 0 mm 3 mps 665 mmHg 59%
    08:00 +25°C° 0 mm 4 mps 666 mmHg 56%
    09:00 +26°C° 0 mm 4 mps 667 mmHg 52%
    10:00 +28°C° 0 mm 4 mps 667 mmHg 47%
    11:00 +29°C° 0 mm 3 mps 667 mmHg 41%
    12:00 +31°C° 0 mm 3 mps 667 mmHg 36%
    13:00 +31°C° 0 mm 3 mps 667 mmHg 35%
    14:00 +31°C° 0 mm 2 mps 666 mmHg 34%
    15:00 +31°C° 0 mm 2 mps 666 mmHg 33%
    16:00 +30°C° 0.1 mm 1 mps 665 mmHg 36%
    17:00 +29°C° 0.1 mm 1 mps 665 mmHg 39%
    18:00 +28°C° 0.1 mm 1 mps 665 mmHg 41%
    19:00 +28°C° 0.1 mm 1 mps 666 mmHg 44%
    20:00 +27°C° 0.1 mm 1 mps 666 mmHg 46%
    21:00 +26°C° 0.1 mm 1 mps 666 mmHg 49%
    22:00 +26°C° 0.4 mm 1 mps 666 mmHg 53%
    23:00 +25°C° 0.4 mm 2 mps 666 mmHg 56%

    24 September, Monday

    Time Temperature Precipitation Wind Pressure Humidity
    00:00 +24°C° 0.4 mm 2 mps 666 mmHg 60%
    01:00 +24°C° 0 mm 2 mps 665 mmHg 61%
    02:00 +24°C° 0 mm 2 mps 665 mmHg 63%
    03:00 +24°C° 0 mm 2 mps 665 mmHg 64%
    04:00 +23°C° 0.2 mm 2 mps 665 mmHg 67%
    05:00 +23°C° 0.2 mm 2 mps 665 mmHg 69%
    06:00 +21°C° 0.2 mm 3 mps 666 mmHg 72%
    07:00 +24°C° 0 mm 3 mps 666 mmHg 64%
    08:00 +26°C° 0 mm 3 mps 667 mmHg 57%
    09:00 +28°C° 0 mm 4 mps 668 mmHg 50%
    10:00 +29°C° 0 mm 3 mps 668 mmHg 45%
    11:00 +31°C° 0 mm 3 mps 668 mmHg 39%
    12:00 +34°C° 0 mm 3 mps 668 mmHg 34%
    13:00 +32°C° 0 mm 2 mps 667 mmHg 36%
    14:00 +31°C° 0 mm 1 mps 666 mmHg 38%
    15:00 +30°C° 0 mm 1 mps 665 mmHg 40%
    16:00 +29°C° 0.4 mm 2 mps 665 mmHg 46%
    17:00 +27°C° 0.4 mm 2 mps 665 mmHg 52%
    18:00 +26°C° 0.4 mm 3 mps 665 mmHg 58%
    19:00 +25°C° 2.4 mm 3 mps 665 mmHg 63%
    20:00 +24°C° 2.4 mm 3 mps 666 mmHg 68%
    21:00 +24°C° 2.4 mm 3 mps 666 mmHg 73%
    22:00 +22°C° 2.4 mm 3 mps 666 mmHg 75%
    23:00 +22°C° 2.4 mm 3 mps 666 mmHg 77%

    25 September, Tuesday

    Time Temperature Precipitation Wind Pressure Humidity
    00:00 +21°C° 2.4 mm 3 mps 666 mmHg 79%
    01:00 +21°C° 1.6 mm 3 mps 665 mmHg 80%
    02:00 +21°C° 1.6 mm 3 mps 665 mmHg 80%
    03:00 +20°C° 1.6 mm 3 mps 665 mmHg 81%
    04:00 +20°C° 1.1 mm 3 mps 665 mmHg 80%
    05:00 +20°C° 1.1 mm 3 mps 665 mmHg 79%
    06:00 +20°C° 1.1 mm 3 mps 665 mmHg 78%
    07:00 +22°C° 0.1 mm 3 mps 666 mmHg 71%
    08:00 +24°C° 0.1 mm 3 mps 666 mmHg 64%
    09:00 +26°C° 0.1 mm 3 mps 667 mmHg 57%
    10:00 +28°C° 0 mm 3 mps 667 mmHg 52%
    11:00 +29°C° 0 mm 3 mps 667 mmHg 47%
    12:00 +31°C° 0 mm 2 mps 667 mmHg 41%
    13:00 +31°C° 0.1 mm 2 mps 666 mmHg 42%
    14:00 +30°C° 0.1 mm 1 mps 666 mmHg 43%
    15:00 +30°C° 0.1 mm 1 mps 665 mmHg 44%
    16:00 +29°C° 0.1 mm 1 mps 665 mmHg 48%
    17:00 +28°C° 0.1 mm 1 mps 664 mmHg 51%
    18:00 +27°C° 0.1 mm 1 mps 664 mmHg 55%
    19:00 +26°C° 0.6 mm 1 mps 665 mmHg 59%
    20:00 +26°C° 0.6 mm 1 mps 665 mmHg 63%
    21:00 +25°C° 0.6 mm 1 mps 665 mmHg 67%
    22:00 +24°C° 1.4 mm 2 mps 665 mmHg 69%
    23:00 +24°C° 1.4 mm 2 mps 665 mmHg 71%
    Show more